Wind_Speed
10 11 11 11 12 12 12 11 11 11 12 12 12 13 13 14 14 14 14 14 15 15 14 14 15 15 15 15 15 15 15 14 14 14 14 15 15 15 14 14 14 14 14
11 11 10 11 12 12 11 11 11 11 12 12 13 13 13 14 14 14 14 15 15 15 15 14 15 16 17 17 16 15 15 15 15 15 15 15 15 15 15 15 15 15 15
10 10 11 11 11 11 11 11 11 11 11 12 13 13 14 14 13 14 15 15 15 15 15 15 16 16 17 17 16 16 16 16 16 15 15 15 15 15 15 15 16 15 15
10 10 10 11 11 11 10 10 11 11 12 12 12 13 13 13 14 14 14 14 14 14 15 16 16 16 17 17 17 16 16 16 15 15 15 15 15 16 15 16 16 17 17
11 11 11 11 11 11 11 12 12 12 12 12 13 13 13 14 14 14 14 14 14 14 14 14 15 15 15 16 15 15 14 15 15 15 15 15 15 15 15 16 16 17 17
11 11 11 11 10 10 11 12 12 13 13 12 13 13 14 14 14 14 14 14 14 14 14 15 15 15 15 15 14 14 14 14 15 15 16 15 15 16 15 16 16 16 17
12 11 11 11 11 11 12 12 12 12 13 13 13 13 13 14 14 14 14 14 14 14 15 15 15 15 15 14 14 15 15 15 15 16 16 16 17 16 16 16 16 16 17
12 12 12 12 12 13 13 13 12 13 13 13 13 13 13 14 14 15 15 14 15 15 15 15 15 16 16 17 16 16 16 15 15 16 17 17 17 17 17 18 18 18 18
13 12 12 13 13 14 14 14 14 14 14 14 14 14 15 15 15 15 15 15 16 16 16 16 16 17 17 17 17 17 17 16 16 17 17 17 18 18 18 18 19 19 18
14 14 14 14 15 15 15 15 15 15 15 15 15 16 16 16 16 16 16 16 16 16 16 16 17 17 18 18 18 18 18 18 18 18 18 18 18 19 19 19 19 19 19
15 15 15 16 16 16 16 16 16 16 16 16 16 17 17 17 17 17 17 17 17 17 17 17 17 18 19 19 18 18 19 19 19 19 19 19 19 20 21 21 21 20 20
17 17 17 17 17 17 17 17 17 17 18 18 18 18 18 18 18 19 19 19 19 18 18 18 19 19 20 20 19 19 19 20 20 19 20 20 20 21 22 21 21 22 22
19 18 18 18 19 19 19 19 19 19 19 19 18 19 19 19 19 19 20 20 20 20 20 20 20 20 20 21 20 20 20 20 20 21 21 21 22 22 22 22 22 23 23
20 20 20 20 20 20 20 21 21 21 20 20 20 19 20 20 20 20 20 20 20 20 21 21 21 21 21 21 21 21 22 22 22 22 21 22 22 22 23 23 23 24 24
21 21 21 21 21 21 21 22 21 21 21 21 21 21 21 21 21 21 21 21 21 21 21 21 22 22 22 22 22 22 22 22 23 23 23 23 23 23 23 23 23 23 24
22 22 23 23 22 23 23 22 22 22 22 22 22 22 22 22 22 22 22 22 22 22 22 22 23 23 23 22 23 23 23 23 23 24 25 25 25 25 25 24 24 24 24
22 23 23 24 23 23 22 22 22 22 23 23 23 23 24 24 24 24 24 24 23 23 22 23 24 24 25 24 24 24 24 24 25 25 25 26 26 26 26 25 25 25 25
23 23 24 24 24 24 24 24 23 23 23 24 24 24 25 25 25 25 25 25 25 24 24 24 24 25 26 26 26 26 26 26 26 27 27 27 26 26 26 26 26 25 26
24 24 24 25 25 25 25 25 25 25 24 25 25 25 25 25 25 26 26 27 26 26 25 25 25 26 27 27 27 28 28 28 28 28 27 27 27 27 26 26 26 26 26
25 25 25 26 26 26 27 27 27 27 26 26 26 26 26 26 26 27 27 28 28 28 27 27 27 27 27 28 28 28 29 29 29 28 28 28 28 28 27 26 26 26 26
25 26 26 26 27 27 28 28 28 28 27 27 27 27 27 27 27 27 28 29 29 29 29 29 28 28 28 29 29 29 29 29 29 30 30 30 30 29 29 28 28 27 27
26 27 27 27 27 28 28 28 28 28 28 28 28 28 28 28 28 28 29 29 29 30 30 30 30 29 29 30 30 30 30 30 30 30 31 30 31 30 30 30 29 29 29
27 27 28 28 29 29 29 29 28 27 28 29 29 29 30 29 29 29 30 30 30 30 30 30 30 30 30 30 30 30 31 31 31 31 31 30 31 31 31 31 31 30 30
28 29 29 29 30 30 30 30 30 29 29 29 30 31 31 31 31 30 30 31 31 31 31 31 31 31 31 30 30 31 31 31 31 31 31 31 31 31 31 32 32 32 31
30 30 31 31 30 30 30 30 30 31 31 30 31 31 30 30 31 32 32 31 31 31 32 32 32 31 31 31 31 31 31 31 31 31 32 32 32 32 32 32 32 32 32
29 30 31 31 31 30 30 31 31 31 31 31 31 31 30 30 31 32 31 31 31 31 32 32 32 31 31 31 31 32 32 32 32 32 31 32 32 32 32 32 33 33 33
Wind_Direction
275 278 279 278 278 278 277 276 275 273 265 260 256 260 262 260 257 257 256 255 255 254 256 257 257 257 255 253 253 255 255 255 256 257 259 262 263 264 264 265 265 265 262
275 276 278 279 279 279 277 276 273 272 270 268 265 262 260 259 259 256 255 254 253 250 252 253 253 251 252 252 254 255 255 255 257 259 260 261 262 263 263 264 265 265 265
278 278 278 280 280 279 278 275 271 269 268 268 268 266 262 261 259 257 255 253 254 253 254 256 256 254 255 255 255 255 256 259 260 260 261 262 263 262 260 260 261 262 263
280 280 279 280 280 278 275 275 275 274 273 272 270 268 265 265 263 262 260 258 257 258 259 260 261 259 256 257 260 260 260 262 262 260 261 261 262 261 259 260 259 260 261
282 283 281 279 278 277 273 273 274 275 275 274 272 269 266 264 264 263 263 262 262 263 263 263 263 265 264 264 265 264 262 263 262 260 261 262 262 261 260 259 260 260 261
282 284 283 280 281 280 278 277 275 273 273 273 274 273 269 264 264 265 264 262 262 263 263 264 265 266 266 267 265 266 264 264 264 263 263 264 263 261 260 260 261 261 262
280 281 280 278 279 281 281 281 279 276 275 275 275 274 272 268 266 266 264 263 263 264 264 264 265 266 266 264 265 267 266 266 265 264 265 264 263 262 261 260 261 262 263
277 276 275 277 279 281 281 280 278 278 278 276 276 277 275 269 269 266 263 262 264 265 264 264 264 266 266 266 266 265 266 266 265 264 264 262 262 261 261 261 262 263 263
274 274 276 278 280 281 279 277 278 281 279 278 276 275 274 269 271 266 263 262 263 264 264 265 266 267 265 265 267 265 264 264 265 266 264 263 261 262 264 264 262 261 261
274 276 278 279 278 279 279 280 280 278 278 279 277 275 273 270 269 266 264 264 264 265 266 267 266 267 266 265 266 264 263 264 265 265 264 264 265 263 264 263 263 261 261
275 276 277 279 279 281 282 280 279 278 280 280 279 276 274 272 269 266 265 265 266 267 268 268 267 267 266 265 265 265 264 264 264 265 265 266 266 265 265 265 263 261 262
273 274 274 276 279 281 282 281 278 279 279 280 278 275 274 271 270 268 266 266 267 267 268 269 269 267 266 266 266 265 265 265 266 267 266 268 268 267 266 267 265 262 262
272 272 273 276 278 279 279 280 279 280 280 279 277 274 273 271 271 269 268 267 265 267 268 269 270 269 267 265 266 267 268 268 267 266 267 268 269 269 268 267 266 265 263
272 272 273 276 277 277 279 280 280 279 278 276 275 274 273 271 270 270 268 267 266 266 268 268 269 270 268 265 266 267 268 269 268 267 268 270 270 269 269 267 266 266 263
274 274 275 277 277 279 281 280 280 279 276 275 275 273 271 270 270 270 269 268 267 266 267 268 269 271 270 267 266 266 268 269 268 267 270 271 271 270 269 267 267 267 264
276 276 276 278 279 280 281 280 280 279 278 277 275 273 271 270 269 269 269 268 267 267 268 268 268 270 270 268 267 267 268 270 269 270 271 271 270 269 268 267 267 268 266
278 278 279 281 280 280 280 280 280 280 280 279 278 275 273 271 270 269 268 267 268 269 268 268 268 269 269 268 268 268 269 270 270 270 271 272 271 270 269 269 268 267 266
279 279 280 281 281 279 279 280 281 280 279 279 278 277 275 272 270 269 268 267 268 268 269 269 269 269 269 269 269 270 271 272 271 271 271 271 271 270 269 270 269 267 266
278 279 281 281 281 278 278 279 280 280 279 278 278 277 275 273 272 270 269 267 267 267 268 269 270 270 270 270 270 271 272 272 273 273 273 272 270 270 269 269 268 268 266
279 280 281 282 281 279 277 277 278 278 277 276 277 276 274 273 273 271 269 267 267 267 268 269 271 271 270 270 270 271 272 272 271 272 273 273 271 271 270 268 268 267 266
279 280 281 283 282 280 279 277 277 276 275 275 276 275 273 273 273 272 270 268 266 267 268 270 271 271 270 270 271 272 272 271 269 271 273 273 272 271 270 268 267 268 268
280 280 281 282 283 282 280 279 276 274 274 274 275 275 273 273 273 271 270 268 266 267 268 269 270 271 271 271 271 271 271 270 270 271 272 272 272 271 269 268 268 267 267
280 281 281 282 282 282 282 281 278 275 274 274 274 274 272 272 272 272 271 269 268 268 268 268 270 271 271 271 271 271 270 271 271 272 271 272 272 271 270 269 268 267 266
280 281 282 283 282 282 282 281 279 275 274 274 273 273 273 272 271 271 272 271 269 267 268 269 270 270 271 270 270 272 271 271 271 271 271 273 272 270 269 269 268 267 266
281 282 283 284 284 284 281 279 278 276 274 274 274 274 274 273 271 270 271 271 269 268 268 269 269 269 270 270 270 270 270 271 271 271 271 272 272 271 270 268 267 266 266
283 284 285 285 284 283 283 281 279 277 274 274 274 274 274 273 272 271 271 271 271 270 269 269 268 269 270 270 270 270 270 270 271 271 271 272 272 271 270 269 267 266 266
Height
5856 5856 5855 5854 5854 5853 5853 5852 5852 5851 5851 5851 5850 5850 5850 5850 5850 5850 5850 5850 5850 5850 5850 5850 5849 5849 5849 5849 5849 5850 5850 5850 5850 5851 5851 5851 5852 5852 5852 5853 5853 5853 5853
5854 5853 5852 5852 5851 5850 5850 5849 5849 5849 5848 5848 5848 5847 5847 5847 5847 5847 5847 5847 5847 5847 5847 5847 5846 5846 5846 5846 5846 5847 5847 5847 5847 5847 5848 5848 5848 5849 5849 5850 5850 5850 5850
5851 5851 5850 5849 5848 5848 5847 5847 5846 5846 5845 5845 5845 5844 5844 5844 5843 5843 5843 5843 5844 5844 5844 5844 5844 5843 5843 5843 5843 5843 5844 5844 5844 5844 5844 5845 5845 5845 5846 5846 5847 5847 5847
5849 5848 5847 5846 5845 5845 5844 5844 5843 5843 5842 5842 5841 5841 5841 5840 5840 5840 5840 5840 5840 5840 5840 5840 5840 5840 5841 5840 5840 5840 5840 5840 5840 5841 5841 5841 5841 5842 5842 5842 5843 5843 5844
5846 5845 5845 5844 5843 5842 5842 5841 5841 5840 5839 5839 5838 5837 5837 5837 5837 5837 5837 5837 5837 5837 5837 5837 5837 5837 5837 5837 5837 5837 5837 5837 5837 5837 5838 5838 5838 5838 5839 5839 5839 5840 5840
5844 5843 5842 5841 5840 5840 5839 5838 5838 5837 5836 5836 5835 5834 5834 5834 5834 5834 5833 5834 5834 5834 5834 5834 5834 5834 5834 5834 5833 5834 5834 5834 5834 5834 5835 5835 5835 5835 5835 5836 5836 5836 5837
5841 5840 5839 5839 5838 5837 5836 5835 5835 5834 5833 5832 5832 5831 5830 5830 5830 5830 5830 5830 5830 5830 5830 5830 5830 5830 5830 5830 5830 5831 5831 5831 5831 5831 5831 5831 5832 5832 5832 5832 5832 5832 5833
5838 5837 5836 5836 5835 5834 5833 5832 5832 5831 5830 5829 5828 5828 5827 5827 5827 5826 5826 5826 5827 5827 5827 5827 5826 5827 5826 5826 5827 5827 5827 5827 5827 5827 5827 5828 5828 5828 5828 5828 5828 5829 5829
5835 5834 5833 5832 5832 5831 5830 5829 5828 5827 5826 5825 5824 5824 5823 5823 5823 5822 5822 5822 5822 5823 5823 5823 5823 5823 5823 5823 5823 5823 5823 5824 5824 5824 5824 5824 5824 5824 5823 5824 5824 5825 5825
5831 5830 5830 5829 5828 5827 5826 5825 5824 5823 5822 5821 5820 5819 5819 5819 5818 5818 5818 5818 5818 5818 5819 5818 5818 5818 5818 5818 5819 5819 5819 5820 5820 5820 5819 5819 5819 5819 5819 5820 5820 5820 5820
5827 5827 5826 5825 5824 5823 5822 5821 5820 5819 5818 5817 5816 5815 5814 5814 5814 5814 5814 5814 5814 5814 5814 5814 5814 5814 5814 5814 5814 5815 5815 5815 5815 5815 5815 5815 5815 5815 5815 5815 5815 5815 5816
5824 5823 5822 5821 5820 5818 5817 5816 5815 5814 5813 5812 5811 5810 5809 5809 5808 5809 5809 5809 5809 5809 5809 5809 5809 5809 5809 5809 5810 5810 5810 5810 5810 5810 5810 5810 5810 5810 5810 5810 5810 5810 5810
5819 5818 5817 5816 5815 5814 5812 5811 5810 5809 5807 5806 5805 5805 5804 5804 5803 5803 5803 5804 5804 5804 5804 5804 5804 5804 5804 5804 5805 5805 5805 5805 5805 5805 5805 5805 5804 5804 5804 5804 5804 5804 5804
5814 5813 5812 5811 5810 5809 5807 5806 5804 5803 5802 5801 5800 5799 5799 5798 5798 5798 5798 5798 5798 5799 5799 5799 5799 5799 5799 5799 5799 5799 5800 5800 5800 5800 5799 5799 5799 5798 5798 5798 5798 5798 5798
5809 5808 5807 5806 5804 5803 5802 5800 5799 5797 5796 5795 5794 5793 5793 5792 5792 5792 5792 5792 5793 5793 5794 5794 5793 5793 5793 5793 5793 5794 5794 5794 5794 5794 5793 5793 5792 5792 5792 5791 5791 5791 5791
5803 5802 5801 5800 5798 5797 5795 5794 5792 5791 5790 5789 5788 5787 5786 5786 5786 5786 5786 5786 5786 5787 5788 5788 5788 5787 5787 5787 5787 5788 5788 5788 5788 5787 5787 5786 5786 5785 5785 5785 5784 5784 5784
5797 5796 5795 5794 5792 5790 5789 5788 5786 5785 5784 5783 5781 5780 5780 5779 5779 5779 5779 5780 5780 5781 5781 5782 5781 5781 5781 5781 5781 5781 5781 5781 5781 5780 5780 5779 5779 5778 5778 5778 5777 5777 5777
5791 5790 5788 5787 5786 5784 5783 5782 5780 5779 5777 5776 5775 5774 5773 5772 5772 5772 5772 5773 5773 5773 5774 5775 5775 5774 5774 5774 5774 5774 5774 5774 5773 5773 5772 5772 5771 5771 5770 5770 5770 5770 5770
5784 5783 5781 5780 5779 5777 5776 5775 5773 5772 5771 5769 5768 5767 5766 5766 5765 5765 5765 5765 5766 5766 5766 5767 5767 5767 5767 5767 5767 5767 5766 5766 5765 5765 5764 5764 5763 5763 5763 5762 5762 5762 5762
5777 5776 5774 5773 5771 5770 5768 5767 5766 5764 5763 5762 5761 5760 5759 5758 5758 5758 5757 5757 5758 5758 5758 5759 5759 5759 5759 5759 5759 5759 5758 5758 5757 5757 5756 5756 5756 5755 5755 5755 5755 5755 5755
5770 5768 5767 5765 5763 5762 5760 5759 5758 5756 5755 5754 5754 5752 5752 5751 5750 5750 5749 5750 5750 5750 5750 5751 5751 5751 5751 5750 5750 5750 5749 5749 5749 5748 5748 5748 5747 5747 5747 5747 5747 5747 5747
5762 5761 5759 5757 5756 5754 5752 5751 5749 5748 5747 5747 5746 5745 5744 5743 5743 5742 5741 5741 5741 5741 5742 5742 5742 5742 5742 5741 5741 5741 5741 5741 5741 5741 5740 5740 5739 5738 5738 5738 5738 5739 5739
5754 5753 5751 5749 5747 5746 5744 5742 5741 5740 5739 5738 5737 5736 5735 5735 5734 5734 5733 5733 5733 5733 5733 5733 5733 5733 5733 5732 5732 5732 5732 5732 5732 5731 5731 5731 5730 5729 5729 5729 5730 5730 5730
5746 5745 5743 5741 5739 5737 5735 5734 5732 5731 5730 5729 5729 5728 5727 5726 5725 5725 5725 5724 5724 5724 5724 5724 5724 5724 5723 5723 5722 5722 5722 5722 5722 5722 5721 5721 5721 5721 5720 5720 5720 5721 5721
5738 5736 5734 5732 5730 5728 5726 5725 5723 5722 5721 5720 5719 5718 5718 5717 5717 5716 5715 5715 5715 5715 5714 5714 5714 5714 5714 5713 5713 5713 5713 5713 5713 5713 5712 5712 5712 5711 5711 5710 5710 5711 5711
5729 5727 5725 5723 5721 5719 5718 5715 5714 5712 5712 5711 5710 5709 5709 5708 5707 5706 5706 5706 5706 5705 5705 5705 5705 5705 5704 5704 5703 5703 5703 5703 5703 5703 5702 5702 5701 5701 5701 5701 5701 5701 5701